Location: Amsterdam
(30.7274°N, 84.4357°W)
Time: 19:50:21
(UTC+00:00)

Tiros 1 despin weight - Pass Details

Date: 25 February 2026
Orbit: 556 x 593 km, 48.2° (Epoch: 3 March)

Event Time Altitude Azimuth Distance (km) Brightness Sun altitude
Rises 15:25:47 0° 195° (SSW) 2,775 ? 37.3°
Reaches altitude 10° 15:28:29 10° 179° (S) 1,872 ? 37.7°
Maximum altitude 15:31:41 21° 131° (SE) 1,317 ? 38.2°
Drops below altitude 10° 15:34:52 10° 82° (E) 1,861 ? 38.7°
Sets 15:37:33 0° 66° (ENE) 2,754 ? 39.1°
